Location: Janeiro
(34.9957°N, 76.7652°W)
Time: 02:17:28
(UTC+00:00)

USA 267 - Pass Details

Date: 14 December 2019
Orbit: 1100 x 1107 km, 123.0° (Epoch: 19 January)

Event Time Altitude Azimuth Distance (km) Brightness Sun altitude
Exits shadow 23:46:58 13° 135° (SE) 2,741 5.0 -21.9°
Maximum altitude 23:52:57 89° 44° (NE) 1,104 3.2 -23.1°
Drops below altitude 10° 23:59:31 10° 317° (NW) 2,959 5.9 -24.4°
Sets 00:01:59 0° 318° (NW) 3,919 6.6 -24.9°
